Wind_Speed
12 12 12 11 12 13 12 13 14 13 14 14 14 14 15 16 14 14 14 14 15 15 15 15 15 14 14 14 14 14 14 13 13 13 12 12 11 11 11 11 11 10 10 10 10 10 10 10 10 10 9 9 8 7 6 5 5 4 5 6 6 5 5 5 4 5 6 8 9 10 10 11 10 8 8 9 11 12 13 15 16 16 15 15 14
12 12 12 11 12 13 12 12 13 13 13 14 14 14 15 15 14 14 14 14 15 15 15 15 14 14 14 14 14 13 13 13 13 12 12 11 11 10 10 10 10 9 9 8 8 8 8 8 8 8 7 7 7 7 6 5 5 4 4 5 5 5 5 5 5 5 6 7 9 10 10 10 8 6 6 6 7 7 7 10 11 12 14 15 15
12 12 11 11 12 13 12 12 13 13 13 13 14 14 15 15 14 14 14 14 14 15 15 14 14 13 13 13 13 13 13 13 12 12 11 10 10 9 9 9 8 8 7 6 7 7 7 7 6 7 6 5 6 6 6 6 5 5 5 5 5 5 6 6 5 5 5 5 6 7 7 7 6 7 8 9 10 10 8 8 6 6 8 10 12
12 12 11 11 12 12 12 12 13 12 13 13 13 14 14 14 14 14 15 14 14 14 14 14 13 13 13 13 13 12 12 12 12 11 10 9 9 8 8 8 7 6 6 6 6 6 6 6 6 6 5 4 5 5 6 6 6 7 6 5 6 6 6 6 6 5 4 4 3 5 6 7 7 8 10 12 14 14 12 10 8 7 7 7 7
11 12 12 12 12 12 11 11 11 12 12 12 13 14 14 14 14 15 15 15 14 14 14 13 12 12 12 12 12 12 12 11 11 11 9 8 8 7 7 7 6 5 5 5 5 6 6 5 5 6 5 5 6 6 6 6 7 8 7 7 6 7 7 6 6 5 4 3 3 5 7 7 8 9 9 12 14 14 13 11 11 10 9 7 6
10 10 11 12 12 12 10 10 10 11 11 12 13 13 14 14 14 15 15 14 14 14 13 12 12 12 12 12 11 11 11 11 10 10 9 8 7 6 6 6 5 4 4 4 4 5 5 5 5 5 5 5 6 6 7 7 8 8 8 7 7 8 7 6 6 6 5 3 4 6 7 8 9 9 9 11 14 14 13 11 11 11 10 9 7
8 8 9 10 11 11 10 10 9 10 10 11 12 13 14 14 15 15 14 14 14 13 13 12 12 12 11 11 11 10 10 10 10 9 8 7 6 5 5 5 5 4 3 3 4 4 4 4 4 5 5 5 6 6 7 8 8 8 8 8 8 8 8 7 7 7 6 4 3 6 8 9 10 9 10 12 13 12 12 10 10 10 9 10 9
8 8 8 9 9 10 10 9 9 9 9 10 12 13 14 14 15 15 14 13 13 13 12 12 12 11 11 10 10 10 10 9 9 9 8 7 6 5 5 5 5 4 3 3 3 3 3 3 3 4 5 6 7 7 8 8 9 9 9 9 9 9 9 9 9 8 8 7 6 8 9 10 10 10 11 13 12 11 11 9 9 9 9 10 9
8 7 8 8 9 10 9 8 8 8 9 10 12 13 14 14 14 14 14 13 13 12 12 12 11 11 10 10 10 9 9 9 9 8 8 8 7 6 5 5 5 5 4 4 3 3 3 4 4 5 6 7 8 8 8 9 9 9 10 10 10 10 11 11 10 10 10 10 9 10 11 11 11 11 12 13 12 11 10 9 9 10 11 10 8
8 8 8 8 9 9 9 8 7 8 8 10 12 13 14 14 14 14 13 13 13 12 12 12 11 11 10 10 9 9 9 9 9 8 8 8 7 6 6 6 6 6 5 5 3 3 4 5 5 6 6 8 9 10 10 10 10 10 11 11 12 12 12 12 11 10 11 12 11 12 13 12 13 13 12 12 12 12 11 11 11 11 12 10 8
9 8 8 8 9 9 9 8 7 8 8 10 12 14 14 15 14 13 13 12 11 12 11 11 11 11 10 9 9 9 9 9 9 8 8 9 8 7 7 6 6 7 7 6 5 4 3 5 7 8 9 9 10 11 10 11 11 11 12 12 13 13 13 13 12 11 13 14 13 13 14 14 14 13 12 12 12 12 12 12 11 11 11 9 8
9 9 9 9 9 9 9 8 7 8 9 10 12 14 15 15 14 13 12 11 10 11 10 10 11 11 10 9 9 9 9 10 10 9 9 9 9 8 8 7 7 8 8 7 6 5 3 4 7 9 11 11 12 12 12 12 12 13 13 13 14 14 14 14 12 12 15 15 14 14 14 15 15 14 13 12 12 12 12 11 10 10 10 8 7
10 9 9 9 9 9 9 8 7 8 9 10 12 14 15 15 14 13 12 11 10 10 10 10 11 10 10 9 9 9 10 11 11 11 11 10 10 10 10 9 9 9 9 9 7 6 4 4 5 7 10 12 12 13 13 13 14 14 14 14 14 14 14 14 12 11 15 15 15 15 14 15 15 14 13 12 12 11 11 10 10 10 9 8 7
10 10 9 9 9 9 9 8 8 8 9 10 12 14 14 14 13 12 12 11 10 9 10 10 10 10 10 10 10 11 11 12 12 12 12 11 11 11 11 11 11 11 10 10 9 8 6 5 5 6 8 10 10 11 12 12 13 14 14 14 14 14 14 13 11 10 14 14 15 15 13 14 15 13 12 12 12 11 10 10 10 9 9 7 6
9 9 9 9 9 8 8 8 8 8 9 10 12 14 14 14 13 12 11 10 9 9 9 10 10 10 11 11 11 12 13 14 14 13 13 12 12 12 12 12 12 11 11 11 10 10 8 7 6 6 7 8 9 10 11 11 12 13 13 14 14 13 13 13 10 10 12 13 14 14 13 13 12 12 11 11 11 10 9 9 9 8 7 6 5
8 8 8 8 8 8 8 8 9 9 9 11 12 14 14 14 13 12 11 11 10 8 8 9 10 11 12 12 12 13 14 14 14 14 13 13 12 11 11 11 11 11 11 11 11 11 10 9 8 8 9 9 9 10 10 10 11 12 12 13 13 13 12 11 10 9 10 11 11 11 11 10 10 9 9 10 10 9 8 7 7 6 5 5 4
9 8 7 7 7 6 7 7 9 9 10 12 13 14 14 14 13 12 11 10 9 8 8 9 10 12 12 12 12 13 14 14 14 14 13 13 12 11 11 11 11 12 11 11 11 11 12 12 11 10 10 10 10 11 10 10 10 11 12 12 12 12 12 11 9 8 8 9 9 9 9 8 7 7 8 9 8 7 6 5 5 4 3 4 4
9 8 7 6 6 5 6 7 8 8 10 12 14 15 14 14 13 12 11 10 9 9 9 10 11 12 12 12 12 13 13 14 14 14 14 13 13 13 12 12 12 12 12 12 11 12 13 13 13 13 12 11 11 11 11 11 10 10 11 11 12 12 11 10 9 7 7 7 7 7 7 6 5 5 6 6 5 5 4 3 3 2 3 3 3
9 8 7 6 5 5 5 7 7 8 9 11 13 14 14 14 14 12 11 10 9 9 10 11 12 12 12 12 12 12 13 13 14 14 14 13 13 13 13 12 13 13 13 12 12 12 13 14 15 15 14 13 12 11 11 11 10 10 10 10 11 11 11 11 10 9 7 7 7 6 6 5 4 4 4 4 3 3 2 2 1 1 2 3 3
9 8 7 6 6 5 6 7 7 8 9 11 13 14 14 14 13 12 11 10 10 10 11 12 12 12 12 12 12 12 13 13 13 13 13 13 13 13 13 13 13 13 13 13 12 12 13 14 15 16 15 14 13 12 11 11 10 10 10 10 10 11 11 11 10 10 9 8 8 7 6 6 5 4 4 3 3 3 3 2 2 2 3 4 5
9 9 8 7 6 6 6 7 8 8 9 10 12 13 13 14 13 12 11 11 11 12 13 13 13 12 12 12 12 12 12 12 12 12 12 13 13 13 13 13 13 13 13 13 13 13 13 13 15 15 15 15 15 14 12 11 10 9 9 9 9 9 9 9 9 8 8 9 8 8 8 7 7 6 5 5 5 5 5 4 4 4 4 4 5
9 9 8 7 7 7 7 8 8 8 9 10 12 13 13 13 13 12 11 11 12 13 13 13 12 12 12 12 12 12 12 12 12 12 13 12 12 12 13 13 13 13 12 13 13 13 13 13 14 15 15 15 15 15 14 13 11 10 9 9 8 8 8 8 8 7 8 8 9 9 8 8 7 7 6 6 6 6 6 6 6 6 4 5 6
9 8 8 8 8 7 8 8 8 9 10 11 11 12 13 13 13 12 12 12 13 14 13 13 12 12 12 12 12 11 11 11 12 13 13 13 12 12 13 13 13 12 12 12 13 13 13 13 14 14 15 15 15 15 15 14 12 11 10 10 9 9 8 8 8 8 8 8 9 9 9 8 8 7 7 6 6 6 7 7 7 7 6 7 8
8 8 8 8 8 9 9 9 8 8 11 12 12 12 13 13 13 12 12 13 13 14 14 13 13 13 12 12 12 11 10 11 12 13 13 13 12 12 13 13 13 12 12 12 12 13 13 14 14 14 15 15 15 15 15 14 14 13 12 11 10 10 9 9 9 9 9 9 9 9 9 9 8 8 7 7 7 8 8 8 8 8 8 9 10
9 8 8 8 9 10 10 9 8 9 11 12 12 13 13 14 14 13 13 14 14 14 14 13 13 13 12 11 11 10 9 10 11 12 12 12 12 12 12 12 12 12 12 12 13 13 13 13 14 14 15 15 15 15 15 15 14 14 13 12 11 11 10 10 10 10 10 10 10 10 10 10 10 10 9 9 9 9 10 10 10 10 11 11 11
9 9 8 8 9 10 10 9 9 11 12 13 13 13 14 14 15 15 14 14 14 15 14 14 13 13 12 11 10 10 9 9 9 11 11 12 12 12 12 12 12 12 12 12 13 13 13 13 13 14 15 15 15 15 15 15 14 14 13 13 12 12 12 11 11 11 11 11 11 11 11 11 11 11 11 11 11 11 12 12 12 12 12 13 12
10 10 9 9 10 10 10 10 10 12 13 14 14 14 14 15 16 16 15 15 15 15 14 14 13 12 11 10 10 9 9 8 9 10 11 11 12 12 11 11 11 12 12 12 12 13 13 13 13 14 15 15 15 15 14 14 14 14 14 14 13 13 13 12 13 12 12 12 12 13 12 12 13 13 13 12 12 13 13 13 13 13 13 13 13
10 11 10 10 10 10 10 10 11 13 15 15 15 15 16 17 18 17 16 16 15 14 14 13 12 11 11 10 10 9 9 9 10 10 11 11 11 11 11 11 12 12 12 12 12 12 12 13 13 14 15 15 15 14 14 14 14 14 14 14 14 14 14 14 13 13 13 13 13 13 13 13 14 14 14 14 14 14 14 14 14 14 14 14 14
11 11 10 11 11 10 9 11 13 14 15 16 16 17 18 19 19 18 17 16 15 14 14 13 12 11 11 11 10 10 10 10 10 11 12 12 12 12 11 12 12 13 13 12 12 11 11 12 13 13 14 15 15 14 14 14 14 15 14 14 14 14 15 14 14 14 14 14 14 14 14 14 14 15 15 15 15 14 14 14 14 14 14 14 14
12 11 11 11 12 10 9 10 13 15 16 16 17 19 20 20 19 18 17 16 15 15 14 13 12 12 12 11 11 11 11 11 11 11 11 11 11 12 12 12 13 13 13 13 12 11 11 11 12 13 13 14 14 14 14 13 14 14 14 14 14 14 15 14 14 14 14 14 14 14 14 14 15 15 15 15 15 15 14 14 14 14 14 14 14
12 12 11 12 12 11 10 11 14 15 16 17 19 20 20 20 19 18 17 17 16 14 13 12 12 12 13 12 12 12 11 11 11 11 11 11 10 11 11 11 12 13 13 13 12 11 10 10 11 12 12 13 13 14 14 13 13 13 14 14 14 14 14 14 14 14 14 14 14 14 14 14 15 15 15 15 14 14 14 14 14 14 14 14 14
13 12 12 12 12 11 11 12 14 16 18 19 20 20 20 20 19 17 17 16 15 13 13 12 12 13 13 13 12 12 11 11 11 11 10 10 10 10 10 11 11 12 13 13 13 11 10 9 10 11 11 12 12 13 13 13 13 13 13 13 13 13 13 13 13 13 13 14 14 14 14 14 14 14 15 14 14 14 13 13 13 13 13 13 13
13 13 12 13 12 11 12 13 15 17 19 20 21 20 20 19 18 17 16 15 14 13 13 12 13 13 13 12 12 11 11 10 10 10 10 9 10 10 10 10 10 11 12 13 13 12 10 9 9 9 9 10 10 11 12 12 12 12 12 12 12 13 13 12 12 12 13 13 13 14 14 14 14 13 13 13 13 13 12 12 12 12 12 12 12
14 13 13 13 13 12 13 15 16 18 20 21 21 20 19 19 18 17 15 14 13 13 13 13 13 13 12 12 11 11 10 9 9 9 9 10 10 10 10 10 10 11 12 12 13 12 11 9 8 8 8 8 8 9 9 10 10 11 11 12 12 12 12 11 11 12 12 12 13 13 13 13 13 12 12 12 12 12 11 11 11 11 12 12 12
13 14 14 14 14 14 15 17 18 19 20 21 21 20 19 18 17 16 14 13 13 13 13 13 13 12 12 11 11 10 10 9 8 9 9 10 10 10 10 10 10 11 12 12 13 13 11 10 9 8 7 7 8 8 8 8 8 9 10 10 11 12 11 11 10 10 11 11 11 12 12 12 12 11 11 11 11 11 11 11 11 11 11 11 11
14 14 14 14 14 14 16 18 19 20 21 21 21 20 18 17 16 15 14 13 13 13 14 13 13 12 11 11 11 10 10 9 9 10 11 11 11 10 10 11 11 12 12 13 13 13 12 10 10 9 8 7 8 8 8 8 8 8 8 8 9 9 9 9 9 9 9 9 10 10 11 11 11 10 10 10 10 10 10 10 10 11 11 10 10
14 14 15 15 15 15 16 19 20 21 20 20 19 19 18 17 16 14 13 13 13 13 14 14 13 12 11 11 10 10 10 9 10 11 12 12 12 11 11 11 12 13 13 14 13 13 12 11 10 10 10 9 8 8 8 8 8 9 9 8 8 8 7 7 7 7 8 8 8 9 9 10 10 10 9 9 9 9 10 10 10 10 9 9 9
14 14 15 15 15 15 17 19 20 20 20 19 18 18 17 17 16 15 14 14 13 14 14 14 13 12 11 11 10 10 10 10 11 12 13 12 12 12 11 12 12 13 14 14 13 13 13 12 11 11 12 11 10 9 9 9 9 9 9 9 8 7 7 6 6 6 7 6 7 8 9 9 9 9 9 9 9 9 9 9 9 9 8 8 8
15 15 15 15 15 15 16 18 20 20 19 18 17 17 17 16 16 15 15 15 14 15 15 14 13 12 12 11 11 10 10 10 12 13 13 13 13 13 12 12 12 13 14 14 13 13 12 12 11 11 12 12 11 10 10 10 9 9 8 9 9 8 7 6 6 6 6 6 6 7 8 8 9 9 9 9 9 9 9 8 8 8 8 7 7
17 16 15 16 16 15 15 17 19 19 19 18 17 17 17 16 16 16 16 16 16 16 15 14 13 12 12 12 11 11 10 10 12 13 14 15 15 14 13 13 13 13 14 13 13 12 12 12 11 11 11 11 11 11 11 11 10 10 9 9 9 8 8 7 7 6 6 6 6 6 7 7 7 7 8 8 8 8 8 8 8 7 7 6 6
18 18 17 16 17 17 17 18 19 20 19 18 18 18 17 17 17 17 17 17 16 16 15 14 13 13 13 12 12 12 11 11 12 13 15 15 15 15 13 13 13 13 13 13 12 12 12 11 11 10 10 11 11 11 11 11 11 10 10 9 9 8 8 7 7 7 7 7 7 7 7 7 7 7 7 7 7 8 8 8 7 6 6 5 6
20 19 19 19 19 19 19 19 20 21 21 20 19 19 19 19 19 19 18 17 17 16 15 14 13 13 13 12 12 12 12 11 12 13 15 16 15 15 14 13 13 13 13 13 12 11 11 11 12 12 11 11 12 11 11 11 11 11 11 10 9 8 8 7 7 7 7 7 7 7 7 6 6 6 6 7 7 7 7 6 6 6 5 5 6
21 21 21 21 20 20 20 20 21 22 22 22 21 21 20 20 19 18 18 17 16 16 15 14 13 13 13 12 11 12 12 12 12 13 14 15 15 15 13 12 12 12 12 12 11 10 11 11 12 13 13 13 13 12 12 12 12 11 11 10 9 8 8 8 7 7 7 7 7 7 7 7 6 6 6 6 6 6 5 5 5 5 5 5 6
23 22 22 21 21 21 21 21 22 23 23 23 22 22 20 19 18 17 16 16 15 15 14 14 13 13 13 12 11 12 12 12 12 12 13 14 15 14 12 11 11 11 10 10 10 10 11 11 12 13 13 13 13 13 12 12 12 11 11 10 10 9 8 8 8 8 8 8 8 7 7 7 7 6 6 5 5 5 5 5 5 5 5 6 6
24 23 23 22 22 23 23 24 24 25 25 25 23 21 19 17 16 16 15 15 14 14 15 14 14 13 13 12 11 11 12 12 12 12 12 13 13 13 12 10 10 10 10 9 9 10 10 10 11 11 12 12 12 12 11 11 10 10 10 9 9 8 8 8 8 8 8 8 9 9 8 7 7 6 6 5 5 5 4 5 6 6 6 6 6
25 25 24 24 25 25 26 26 26 26 26 26 24 22 19 17 16 16 16 16 16 17 17 16 15 14 13 12 11 11 12 12 12 12 12 12 13 13 12 11 11 11 10 10 10 10 10 10 10 11 11 11 11 11 10 9 9 9 9 9 8 8 8 8 8 8 8 9 9 9 8 8 7 7 6 6 5 5 5 6 6 6 6 6 6
27 28 27 26 26 26 27 27 27 27 27 26 24 22 20 18 17 17 18 19 20 20 19 17 16 15 14 13 12 12 12 13 13 13 12 13 13 13 12 12 12 12 12 11 11 11 10 10 10 11 11 11 11 11 11 11 10 10 11 11 11 10 10 10 10 10 10 10 10 9 9 8 8 7 7 6 6 6 6 6 6 7 7 7 7
28 30 29 28 27 27 28 28 28 28 28 26 25 23 21 20 19 19 19 20 21 20 19 18 17 16 15 14 13 13 13 14 14 13 13 13 13 13 13 13 12 12 12 12 11 11 11 11 11 12 12 13 13 12 12 13 12 12 12 12 12 11 11 10 11 11 10 10 10 9 9 8 8 7 7 7 7 7 7 7 7 8 8 8 8
28 31 31 31 29 28 29 29 29 29 28 26 25 24 23 22 21 21 21 21 21 20 19 18 18 17 16 15 14 13 14 14 14 14 14 13 13 13 13 13 12 12 12 12 11 10 10 10 10 11 12 13 13 13 13 14 13 13 12 11 11 11 10 10 10 10 10 9 9 9 8 8 7 7 8 8 7 8 8 8 8 8 8 8 8
26 31 33 32 31 30 29 29 29 29 28 27 26 25 24 23 22 22 22 22 21 20 19 18 18 18 17 16 15 14 14 14 14 14 14 13 13 13 12 12 12 11 11 11 10 10 9 9 9 10 11 12 13 13 13 13 13 12 12 11 10 10 10 10 9 9 9 9 8 8 8 8 7 7 7 8 8 8 8 7 7 7 7 7 7
23 28 32 33 32 31 30 30 30 29 29 28 26 25 25 24 24 23 23 23 21 20 19 18 18 18 18 17 16 15 14 14 14 14 14 13 12 12 12 11 11 11 11 11 10 10 10 9 9 9 9 10 11 12 12 12 11 11 10 10 9 10 10 11 11 10 10 9 9 8 8 7 7 7 7 7 7 7 6 6 7 7 8 8 8
Wind_Direction
89 100 104 104 101 102 105 106 105 104 104 105 105 105 103 102 103 105 107 108 107 107 108 107 108 109 110 110 111 110 110 110 109 110 110 112 113 114 116 115 114 113 113 115 117 118 118 119 120 120 121 120 118 114 111 105 99 103 111 112 115 116 116 116 120 130 143 152 158 162 163 166 175 187 178 164 161 158 153 147 142 139 139 138 134
95 102 107 109 105 103 108 109 106 104 103 103 103 102 100 101 105 107 109 109 109 110 110 109 110 110 110 110 110 109 108 108 110 111 112 113 114 115 114 112 110 109 110 114 118 120 119 120 122 121 121 124 123 121 114 104 99 102 103 107 111 110 110 111 111 119 136 149 163 169 168 173 182 185 167 158 159 156 150 141 138 139 139 139 138
105 109 110 113 109 107 111 110 103 101 101 102 102 102 103 106 110 111 112 112 112 111 109 108 108 109 108 109 108 107 107 108 110 111 111 111 110 109 107 106 104 105 111 119 123 123 124 126 128 120 118 121 116 114 107 100 101 106 109 110 108 108 107 106 107 109 125 147 163 164 163 173 174 166 156 156 156 151 144 133 128 125 123 125 131
108 113 115 115 112 108 105 102 98 99 100 101 104 106 110 113 115 115 114 112 110 108 107 106 107 108 108 108 107 107 107 108 108 108 108 108 109 107 107 108 107 113 121 126 127 125 127 131 129 118 117 112 98 92 91 95 101 108 112 109 104 105 105 103 104 105 114 130 151 152 159 167 161 160 157 159 157 151 145 135 128 118 108 101 109
108 117 120 116 112 107 103 103 102 103 104 108 112 114 116 117 117 115 113 111 108 106 105 105 107 107 107 107 107 108 108 107 106 106 107 108 110 112 114 116 119 125 130 131 129 125 126 131 124 116 116 111 101 94 94 103 112 117 114 107 102 98 95 95 98 100 104 121 164 158 155 154 147 154 157 159 156 146 141 137 133 126 121 112 99
107 117 119 118 116 113 111 110 108 108 111 115 117 117 119 118 116 114 111 108 105 104 103 104 105 104 104 105 106 107 107 106 106 106 106 107 109 112 115 117 121 126 129 132 130 126 125 130 127 122 120 112 107 106 109 115 121 120 109 101 96 91 91 92 95 98 106 131 170 147 136 138 142 151 155 156 151 140 135 135 133 129 128 118 103
107 115 118 121 120 117 115 112 110 110 112 115 116 119 119 118 116 113 109 107 105 104 103 102 101 100 100 101 103 103 102 102 103 104 104 105 104 105 106 107 109 107 113 119 125 125 125 134 134 129 127 122 117 115 113 116 120 114 104 98 93 92 94 94 94 97 103 99 106 114 124 137 143 147 148 147 142 134 131 132 130 126 120 107 100
105 114 119 122 119 114 111 108 108 108 112 115 118 120 119 118 115 112 109 108 104 101 99 97 96 96 97 98 99 98 99 100 100 102 104 104 101 100 99 98 98 96 96 99 110 115 126 140 144 143 140 133 126 121 117 119 120 111 103 99 95 93 92 93 94 95 97 92 92 107 119 132 138 136 137 137 133 129 129 125 119 115 105 98 101
104 114 118 119 115 110 107 106 108 110 114 117 119 121 120 119 116 113 111 108 105 103 100 97 97 97 97 98 98 99 102 102 101 102 105 104 99 98 94 88 87 87 85 83 96 113 135 147 148 148 145 140 133 128 124 124 121 112 105 101 97 94 91 90 91 93 96 100 103 109 117 126 132 130 130 131 129 127 123 116 108 103 97 95 102
110 117 120 119 115 112 111 112 115 117 119 120 122 124 123 121 118 117 114 110 109 109 106 104 102 99 99 98 98 100 101 99 98 100 104 103 100 97 92 85 81 82 82 84 97 117 145 149 145 144 145 146 137 132 131 129 124 117 110 104 99 94 91 88 88 93 96 101 102 106 115 123 126 124 123 124 123 120 114 109 105 99 95 93 95
118 121 123 123 121 118 117 120 124 124 124 122 124 127 127 125 121 118 115 112 112 111 108 107 102 97 96 95 96 97 98 97 96 99 102 100 98 95 90 86 83 83 85 88 94 105 133 142 141 141 143 143 134 132 131 127 124 119 113 106 100 94 90 88 91 96 97 100 103 107 115 121 121 119 117 115 112 110 107 107 105 99 97 96 93
124 126 129 129 127 123 124 128 130 129 125 122 127 131 130 127 123 120 116 113 112 108 107 104 98 95 92 92 95 96 97 98 98 98 97 94 93 91 88 87 85 84 85 87 90 91 100 118 130 135 136 134 131 131 131 130 127 119 113 107 100 96 92 91 92 97 99 102 107 110 116 120 116 114 112 107 105 106 107 106 103 99 96 93 90
130 132 135 134 131 129 130 134 134 131 123 123 130 133 132 128 125 123 121 116 112 108 107 100 97 99 95 94 98 99 100 100 100 97 93 93 91 90 89 89 87 86 86 88 92 89 86 90 106 122 127 127 129 131 132 132 125 115 111 108 102 99 95 93 90 93 99 103 109 111 112 114 113 114 113 108 108 107 104 102 96 91 89 87 84
135 137 139 137 137 136 137 137 134 128 122 125 133 136 134 130 128 126 122 118 114 111 106 100 99 102 102 103 104 105 106 103 100 97 95 95 94 93 93 92 91 90 90 91 92 89 89 96 104 115 120 124 126 124 121 118 114 110 111 110 107 103 100 97 94 91 95 98 103 106 106 109 111 114 115 113 111 105 99 93 87 82 80 79 78
138 141 142 142 142 142 142 138 132 128 126 130 137 139 137 133 131 129 124 120 114 108 105 105 109 110 110 109 107 107 104 102 100 99 98 96 94 94 93 93 93 91 90 90 88 84 85 98 115 122 119 117 115 108 102 103 107 109 111 113 113 110 107 104 100 92 92 92 94 100 105 108 110 111 114 114 108 102 96 89 83 78 73 72 71
139 142 144 145 146 146 143 137 133 132 132 135 141 141 139 136 133 130 126 122 117 113 111 115 118 117 115 111 108 105 102 101 100 100 98 95 93 90 89 88 88 88 87 85 84 82 80 88 106 119 120 117 113 109 105 106 110 112 114 116 117 117 115 112 107 96 92 90 88 96 102 102 105 109 110 104 98 98 95 88 81 73 63 59 58
140 143 146 147 146 145 140 136 134 134 134 136 141 142 140 139 134 131 127 123 121 120 120 123 122 118 115 111 108 104 102 101 100 98 95 93 90 86 85 85 85 86 86 85 86 85 82 84 94 109 119 123 121 121 119 115 114 116 116 116 117 119 120 120 116 108 99 93 88 91 91 87 88 90 90 88 90 94 90 81 68 54 43 42 44
142 144 146 146 144 141 136 133 132 133 133 136 141 141 142 141 136 133 131 128 127 127 129 129 124 118 115 111 109 106 104 102 98 96 93 90 88 85 83 84 86 87 87 87 88 88 86 86 90 98 109 117 123 126 128 123 119 117 116 116 116 117 119 120 121 119 112 104 97 93 91 87 80 73 77 84 90 89 82 69 49 28 31 42 49
145 146 145 146 145 139 134 131 131 132 132 137 141 141 143 142 139 137 136 135 133 134 135 132 126 121 118 114 112 109 106 104 100 97 94 91 89 87 85 85 86 86 86 86 88 89 88 87 88 90 97 106 115 124 129 129 126 121 117 116 113 113 114 116 118 116 110 104 100 97 96 94 86 77 78 84 83 76 77 72 48 30 56 72 70
150 149 147 150 149 138 135 133 132 133 133 138 142 142 145 145 142 142 141 139 138 140 140 135 130 125 120 117 115 112 109 106 102 98 95 93 91 89 88 86 85 85 86 86 88 89 89 89 90 90 93 98 104 113 121 127 130 128 124 120 116 114 113 114 114 112 106 100 96 94 93 91 86 80 75 78 80 82 89 95 90 80 79 79 73
155 154 153 154 150 140 139 137 137 139 138 141 145 145 148 148 146 146 146 144 143 146 144 138 133 128 124 122 119 115 112 107 102 99 96 95 94 92 90 88 87 86 87 87 89 89 89 91 92 93 93 94 98 103 109 115 123 128 130 129 125 120 119 119 117 114 109 105 100 96 92 89 86 81 78 80 83 87 90 94 93 83 74 71 70
160 159 157 156 150 143 142 140 142 145 145 146 148 150 152 152 150 150 149 148 148 149 146 140 134 129 128 126 122 119 114 108 104 101 100 100 99 97 95 93 91 90 89 89 89 90 91 92 93 93 92 93 94 95 97 102 110 118 126 129 128 126 124 123 121 119 116 113 110 105 98 92 88 85 84 84 84 87 88 87 84 79 70 63 58
163 162 159 156 149 146 144 141 146 151 152 151 150 154 156 155 153 153 153 152 152 151 147 141 136 133 132 129 124 120 114 109 106 102 101 102 103 101 98 96 95 95 94 91 91 92 92 94 96 97 97 96 95 93 93 96 100 105 112 116 118 119 120 120 119 117 117 119 118 113 107 102 97 91 85 81 78 77 78 77 77 76 70 62 57
163 164 161 156 150 148 145 143 149 154 156 154 153 158 161 158 156 156 156 155 156 152 148 144 140 137 135 130 125 119 116 112 107 103 102 103 104 103 100 98 98 98 97 95 94 93 93 95 96 98 100 99 99 98 97 96 97 99 103 106 109 111 114 117 117 117 118 120 120 118 114 109 102 94 84 78 75 74 75 74 75 75 69 64 60
164 164 161 156 151 149 146 146 149 154 158 158 158 164 165 162 158 158 158 158 157 153 149 146 143 140 136 130 124 120 117 113 109 106 103 103 104 104 102 101 102 101 100 99 97 95 94 95 95 95 97 98 99 99 99 97 96 97 99 103 106 109 112 114 115 115 116 118 118 116 112 107 100 94 88 82 78 78 77 76 75 73 69 66 64
165 164 160 153 152 151 146 148 151 153 160 164 164 166 166 163 160 158 158 159 158 154 150 147 144 140 135 129 124 120 118 114 111 108 105 104 105 104 103 102 103 104 103 102 100 99 98 96 96 94 94 96 97 98 99 99 99 99 101 103 105 107 109 110 111 111 112 112 111 109 106 102 98 93 89 84 81 79 78 77 76 74 72 72 71
166 165 159 151 153 153 148 149 153 155 161 167 168 167 165 161 159 158 158 159 158 155 150 147 144 139 134 128 124 120 117 113 112 109 106 104 104 104 103 103 104 105 105 104 103 103 103 100 97 95 94 94 96 97 99 101 102 102 102 102 104 105 106 106 106 106 105 105 105 103 100 98 95 92 89 85 83 80 79 78 78 78 77 77 75
170 166 158 151 153 155 151 151 156 159 163 168 168 167 164 160 158 158 157 158 158 154 148 145 143 139 133 128 125 121 117 114 114 113 110 108 106 106 106 107 107 107 107 107 106 106 105 102 98 95 94 94 94 95 98 101 102 102 102 102 103 104 104 104 104 102 101 101 100 99 98 96 94 92 89 87 84 82 81 81 80 79 78 78 76
172 166 157 152 152 153 153 154 158 161 164 168 167 164 162 158 157 157 157 157 156 153 148 146 145 139 133 129 126 123 119 116 114 114 114 113 113 113 112 112 110 109 109 109 109 108 106 103 101 98 96 95 95 95 96 99 101 102 102 101 102 103 104 104 103 102 101 100 98 97 96 94 92 91 89 87 85 83 82 81 80 78 76 75 74
171 166 159 153 151 152 154 157 160 160 162 164 163 162 159 156 156 156 156 155 155 153 151 151 147 139 134 131 129 126 124 120 116 115 114 114 117 118 117 115 113 111 111 112 113 113 109 105 104 102 100 99 99 98 96 97 99 102 103 103 103 104 104 103 102 100 98 97 95 95 94 92 91 90 89 88 86 85 84 83 81 80 77 75 72
173 167 160 155 152 151 153 159 160 158 158 160 160 159 156 154 154 156 156 156 157 155 154 153 147 140 136 134 132 130 127 123 119 116 114 114 117 119 119 116 114 113 113 115 116 117 115 111 109 107 106 105 104 101 99 98 98 101 104 105 106 106 105 104 102 99 95 94 93 93 92 91 91 91 91 89 88 86 85 84 83 81 80 77 74
175 170 162 155 153 155 155 159 160 157 156 159 159 157 156 154 155 158 159 158 158 157 156 154 147 141 138 136 134 132 128 125 121 118 116 117 120 120 119 118 116 115 114 115 117 118 118 117 115 113 113 112 108 105 102 99 99 102 105 107 109 110 108 107 105 100 95 93 92 92 92 91 91 91 92 91 90 89 86 84 82 81 80 77 74
176 171 164 157 155 157 157 158 160 158 157 158 158 157 157 157 157 160 162 161 160 159 157 153 148 144 140 138 136 133 128 123 119 118 118 121 123 122 120 119 118 116 115 116 117 119 120 120 119 119 120 118 114 110 105 103 102 102 105 109 113 114 112 111 109 105 99 94 92 92 92 93 93 94 94 94 94 91 89 86 83 81 79 75 72
179 174 167 161 159 160 159 159 160 160 159 160 158 158 160 160 160 162 165 166 163 162 159 154 149 146 143 141 138 132 126 119 116 117 120 123 125 124 122 120 119 116 115 115 117 120 123 124 123 123 125 126 124 120 114 112 109 107 108 111 115 117 116 117 116 111 105 101 96 94 93 93 93 94 94 94 93 91 89 85 82 80 77 75 73
184 179 171 165 164 163 162 160 160 162 162 161 160 160 162 163 163 165 168 169 168 164 160 154 149 147 146 143 139 131 124 117 115 117 121 124 125 123 121 118 115 113 112 113 116 120 123 124 124 127 131 133 134 132 128 126 122 116 112 113 116 118 119 121 120 115 109 105 101 99 98 97 96 96 95 94 92 90 87 82 79 77 77 76 74
188 182 176 170 168 165 164 163 163 165 164 163 163 162 165 167 168 169 171 171 169 166 159 153 150 148 148 145 138 130 122 117 117 120 123 124 123 122 118 114 110 109 109 110 113 117 120 121 124 127 130 134 139 143 141 138 133 127 123 121 119 119 120 121 120 116 111 108 106 105 103 102 99 97 96 93 91 89 85 81 78 77 78 77 74
189 187 182 175 172 168 167 167 166 167 166 166 166 167 168 171 173 174 173 173 171 167 160 153 151 150 149 145 136 128 121 119 120 122 124 124 122 120 115 110 107 106 106 107 109 112 116 118 120 122 124 127 134 141 145 145 143 139 136 132 128 125 124 122 121 118 114 113 112 109 107 104 102 100 99 97 95 93 89 86 83 81 80 79 77
188 191 187 178 175 171 171 171 169 170 170 169 169 170 171 173 176 175 174 174 173 168 161 154 152 151 149 143 134 126 120 120 122 123 124 124 122 119 116 110 106 104 103 104 105 109 113 115 114 115 117 120 124 130 135 140 144 142 139 135 132 130 127 126 125 121 117 117 119 118 115 112 110 109 108 107 105 101 97 93 90 86 83 80 77
187 191 188 180 176 175 175 175 172 171 173 173 171 170 172 174 175 175 175 175 173 169 163 156 155 153 148 142 133 124 117 119 122 124 125 125 123 121 118 113 108 105 103 103 103 106 109 110 109 109 111 113 116 119 121 124 128 130 131 131 130 130 130 130 128 125 121 121 123 121 119 116 115 116 115 113 109 104 98 93 89 85 83 79 74
187 188 187 182 178 177 177 178 176 173 173 174 173 171 173 176 177 177 177 176 173 170 164 159 158 153 147 140 132 123 117 119 123 125 126 126 124 122 119 116 112 108 106 105 105 106 108 108 108 108 109 111 112 113 112 111 113 116 120 122 124 127 130 131 129 127 123 123 123 119 115 115 115 115 114 112 110 104 95 88 82 78 77 76 73
190 186 185 184 181 179 179 179 180 177 174 175 175 176 177 179 181 181 179 176 173 171 165 161 158 151 145 138 131 123 119 121 126 127 128 127 125 123 121 118 115 111 109 108 108 108 108 108 108 110 110 111 111 110 109 108 108 111 113 115 117 121 124 126 126 123 121 121 119 116 115 115 115 115 111 108 106 101 93 85 77 71 71 74 75
192 188 185 185 184 182 180 179 181 180 178 178 178 179 182 183 184 183 179 176 173 170 164 160 156 149 144 138 131 125 122 126 131 132 132 130 127 125 124 121 117 113 111 110 108 106 105 107 109 108 108 107 107 108 109 109 108 109 110 111 114 115 115 116 117 116 116 116 114 113 113 111 110 108 105 104 102 100 94 83 71 65 66 72 77
196 193 189 186 185 183 182 180 182 183 182 182 182 183 186 187 185 183 180 175 171 167 162 159 156 150 144 139 134 129 127 131 139 140 137 133 129 127 125 122 118 115 113 110 108 106 107 109 111 110 108 107 107 108 109 108 106 105 105 105 107 109 109 108 108 106 106 106 104 103 102 101 100 98 99 100 99 97 88 70 59 61 70 77 80
200 198 193 189 187 185 183 184 185 184 184 186 187 187 188 188 185 183 179 174 170 166 163 161 157 152 146 141 138 133 131 136 143 145 141 135 131 129 126 123 119 117 115 112 110 112 113 114 114 112 111 110 109 108 106 105 103 102 101 100 100 102 103 101 100 98 96 95 93 92 92 93 93 92 92 91 87 82 69 57 60 71 81 82 80
199 201 196 191 190 188 186 187 187 186 187 189 190 190 190 188 185 184 179 174 172 169 169 168 161 154 146 140 139 137 136 139 145 148 145 140 135 132 130 126 123 121 118 117 116 117 118 119 118 115 113 112 110 108 106 105 104 103 100 98 98 97 95 92 92 92 91 89 87 85 84 84 84 83 80 75 70 61 54 63 75 83 84 80 74
197 201 199 195 192 190 190 189 188 188 189 190 190 191 190 187 186 186 183 178 178 178 176 171 161 151 144 140 139 139 139 141 146 150 148 144 139 136 134 131 128 124 122 121 120 121 122 123 124 121 119 116 114 113 111 108 105 104 100 97 95 92 88 87 88 88 86 84 84 83 81 78 75 73 70 65 62 62 67 77 83 82 78 71 63
198 198 200 199 195 193 192 191 190 191 192 191 190 191 189 187 187 190 187 183 184 183 177 168 157 149 145 143 142 142 142 143 147 150 149 146 142 139 138 135 132 128 125 123 122 123 122 123 124 124 123 121 120 119 116 112 108 105 103 99 94 90 88 87 87 85 83 83 82 80 77 74 70 69 70 70 73 78 82 82 78 71 68 66 64
200 198 198 200 198 195 194 194 193 193 193 191 190 190 189 187 189 191 190 190 190 185 176 166 157 152 149 148 147 146 145 144 146 150 150 148 145 143 142 140 137 133 130 128 126 125 124 123 124 124 124 124 125 124 121 117 114 109 105 102 95 90 87 85 83 81 80 79 79 77 77 77 77 79 81 82 83 84 81 76 72 71 72 71 70
202 198 198 200 199 197 197 195 194 195 194 192 189 190 189 188 190 191 192 194 194 188 179 169 162 158 154 152 153 151 148 147 147 149 149 149 147 145 145 145 144 141 137 136 134 131 129 127 127 128 129 130 130 130 127 124 119 112 107 103 99 93 88 84 82 81 80 80 80 83 87 89 90 90 91 90 87 84 79 76 75 75 74 69 63
206 201 199 200 199 198 198 198 196 195 194 193 191 190 189 188 190 193 195 197 195 190 183 176 169 165 160 159 159 157 155 152 151 152 151 150 149 148 150 151 151 150 148 147 146 144 141 138 136 137 137 138 138 136 133 128 121 115 109 104 101 98 96 92 90 89 90 92 93 96 98 99 100 98 96 93 90 87 84 82 78 70 64 56 51
211 206 202 201 200 198 198 199 199 196 194 193 192 190 189 189 191 195 197 198 196 192 187 181 176 171 168 166 165 163 162 161 160 160 158 158 156 155 155 156 157 158 158 158 157 156 154 151 149 149 149 149 147 143 138 131 124 118 114 109 106 105 105 105 104 102 101 104 105 105 106 106 105 104 100 97 94 91 85 78 72 67 62 57 54
Height
5909 5909 5910 5910 5910 5910 5911 5911 5911 5912 5912 5912 5913 5912 5912 5911 5912 5913 5914 5914 5914 5914 5913 5913 5913 5913 5913 5913 5913 5913 5913 5913 5914 5914 5914 5914 5914 5915 5915 5915 5915 5915 5915 5915 5916 5916 5917 5917 5918 5918 5918 5918 5919 5919 5919 5919 5919 5919 5918 5917 5917 5917 5918 5918 5918 5918 5918 5918 5918 5917 5917 5916 5915 5918 5920 5920 5919 5918 5917 5916 5915 5916 5917 5917 5919
5910 5910 5910 5911 5911 5911 5911 5911 5911 5912 5912 5912 5912 5912 5911 5912 5913 5914 5915 5915 5915 5914 5914 5914 5913 5913 5913 5913 5914 5914 5914 5914 5914 5915 5915 5915 5915 5915 5915 5915 5915 5916 5916 5916 5917 5917 5918 5918 5918 5918 5918 5918 5918 5918 5918 5919 5919 5919 5918 5918 5918 5918 5918 5918 5917 5917 5918 5917 5917 5917 5917 5917 5918 5922 5924 5924 5925 5925 5924 5922 5920 5919 5918 5917 5916
5911 5911 5911 5911 5912 5911 5911 5911 5911 5912 5912 5912 5913 5912 5912 5914 5915 5915 5916 5915 5915 5915 5914 5914 5914 5914 5914 5914 5914 5914 5914 5915 5915 5915 5915 5915 5915 5915 5915 5916 5916 5916 5917 5917 5918 5918 5919 5918 5918 5918 5918 5919 5918 5918 5919 5919 5919 5919 5919 5919 5918 5918 5918 5918 5917 5917 5917 5917 5916 5918 5920 5920 5920 5923 5923 5923 5925 5925 5926 5926 5926 5925 5923 5921 5919
5912 5912 5912 5912 5911 5911 5911 5911 5912 5912 5913 5913 5913 5914 5914 5916 5916 5917 5916 5916 5916 5915 5915 5914 5914 5914 5914 5915 5915 5915 5915 5916 5916 5916 5915 5915 5915 5916 5916 5916 5916 5917 5917 5918 5918 5919 5919 5918 5918 5919 5919 5919 5919 5919 5919 5920 5919 5919 5919 5919 5919 5918 5918 5918 5918 5918 5918 5917 5917 5920 5920 5920 5921 5922 5922 5922 5922 5923 5924 5925 5926 5926 5927 5926 5925
5912 5912 5912 5912 5911 5912 5912 5913 5913 5913 5914 5915 5915 5915 5916 5917 5917 5917 5917 5916 5916 5916 5915 5915 5915 5915 5915 5916 5916 5916 5916 5917 5917 5916 5916 5916 5916 5916 5917 5917 5917 5918 5918 5918 5918 5919 5919 5918 5919 5919 5919 5919 5919 5919 5920 5920 5920 5920 5919 5920 5919 5918 5918 5918 5918 5918 5919 5918 5918 5920 5920 5921 5923 5923 5923 5923 5923 5923 5924 5924 5925 5925 5925 5927 5928
5912 5913 5912 5912 5913 5913 5914 5914 5915 5915 5915 5916 5916 5916 5917 5917 5917 5917 5917 5917 5916 5916 5916 5916 5916 5916 5916 5917 5917 5917 5917 5917 5917 5917 5917 5917 5917 5917 5917 5918 5918 5918 5918 5918 5918 5918 5918 5919 5919 5919 5919 5920 5919 5920 5920 5920 5920 5920 5920 5920 5920 5919 5919 5919 5919 5919 5920 5919 5919 5921 5922 5922 5923 5923 5924 5924 5925 5925 5925 5926 5926 5925 5925 5925 5927
5912 5912 5912 5913 5913 5914 5915 5915 5915 5915 5916 5916 5916 5917 5917 5918 5918 5917 5917 5917 5917 5917 5917 5917 5917 5917 5918 5918 5918 5918 5918 5918 5918 5918 5917 5917 5917 5918 5918 5918 5918 5918 5918 5918 5918 5918 5918 5919 5919 5919 5919 5919 5920 5920 5920 5920 5921 5921 5921 5920 5920 5920 5920 5920 5920 5920 5920 5920 5920 5922 5922 5923 5923 5924 5924 5925 5926 5926 5926 5927 5928 5927 5926 5926 5926
5912 5912 5912 5913 5913 5913 5914 5914 5915 5915 5916 5916 5916 5917 5918 5918 5918 5918 5918 5918 5918 5918 5918 5918 5919 5918 5918 5919 5919 5919 5919 5919 5919 5919 5918 5918 5918 5918 5918 5918 5918 5918 5918 5918 5918 5918 5919 5919 5919 5919 5920 5920 5920 5920 5921 5921 5921 5921 5922 5921 5921 5921 5920 5920 5920 5921 5921 5921 5922 5922 5923 5924 5924 5925 5925 5926 5927 5927 5927 5928 5929 5929 5928 5927 5927
5912 5912 5912 5912 5912 5913 5913 5914 5915 5915 5916 5917 5917 5918 5918 5918 5918 5918 5918 5919 5919 5919 5919 5919 5919 5919 5919 5919 5919 5920 5920 5919 5919 5920 5919 5918 5919 5919 5919 5919 5919 5919 5918 5918 5918 5918 5919 5919 5919 5920 5920 5920 5920 5921 5921 5921 5922 5922 5922 5923 5922 5922 5921 5921 5921 5922 5922 5923 5922 5923 5924 5925 5925 5925 5926 5927 5928 5928 5928 5929 5929 5929 5928 5928 5929
5913 5913 5913 5913 5913 5913 5914 5915 5916 5916 5917 5917 5918 5918 5919 5919 5919 5919 5919 5920 5920 5920 5919 5920 5920 5920 5920 5920 5920 5920 5920 5920 5920 5920 5920 5919 5919 5919 5920 5920 5919 5919 5919 5919 5919 5918 5919 5919 5920 5920 5921 5920 5920 5921 5921 5922 5923 5923 5923 5924 5923 5923 5922 5922 5922 5923 5923 5924 5924 5924 5925 5926 5926 5926 5927 5928 5929 5929 5929 5930 5930 5930 5929 5930 5930
5914 5914 5914 5914 5914 5915 5915 5916 5917 5918 5918 5918 5919 5919 5919 5919 5919 5920 5920 5921 5921 5920 5921 5921 5921 5921 5921 5921 5921 5921 5921 5921 5921 5921 5921 5920 5920 5921 5921 5921 5920 5920 5920 5920 5919 5918 5918 5920 5921 5921 5921 5921 5921 5921 5922 5922 5923 5924 5925 5925 5924 5923 5923 5923 5923 5923 5924 5925 5925 5926 5926 5927 5927 5928 5929 5929 5930 5930 5931 5931 5931 5931 5930 5931 5931
5915 5915 5915 5915 5915 5916 5916 5917 5918 5919 5919 5919 5919 5920 5920 5920 5920 5921 5921 5922 5922 5921 5922 5922 5922 5922 5922 5922 5922 5922 5922 5922 5922 5922 5922 5921 5921 5922 5922 5922 5922 5921 5921 5921 5920 5919 5918 5919 5921 5922 5923 5923 5923 5924 5924 5924 5925 5925 5925 5925 5925 5924 5924 5924 5923 5924 5926 5926 5926 5927 5926 5927 5928 5929 5930 5930 5931 5931 5932 5932 5932 5932 5931 5931 5931
5915 5916 5916 5916 5916 5917 5917 5918 5919 5919 5920 5920 5920 5920 5920 5921 5921 5921 5922 5923 5923 5923 5923 5923 5923 5923 5923 5923 5923 5923 5923 5923 5923 5923 5923 5923 5923 5923 5923 5923 5923 5922 5922 5922 5922 5921 5920 5919 5919 5921 5922 5923 5925 5925 5926 5926 5925 5925 5926 5926 5926 5926 5926 5926 5925 5925 5926 5927 5928 5928 5927 5927 5928 5929 5930 5930 5931 5932 5932 5933 5932 5932 5932 5931 5931
5916 5917 5917 5917 5917 5917 5918 5919 5920 5920 5920 5920 5921 5921 5921 5921 5922 5922 5923 5923 5924 5924 5925 5925 5924 5924 5924 5924 5924 5924 5925 5925 5924 5924 5924 5925 5924 5924 5924 5924 5924 5924 5923 5923 5923 5923 5922 5920 5919 5920 5920 5922 5923 5924 5925 5925 5925 5925 5926 5926 5926 5927 5927 5927 5926 5925 5926 5928 5929 5930 5929 5929 5929 5930 5931 5931 5931 5932 5933 5933 5932 5932 5932 5932 5932
5917 5917 5918 5918 5918 5918 5919 5920 5920 5921 5921 5921 5921 5922 5922 5922 5923 5923 5924 5924 5925 5925 5926 5926 5926 5926 5925 5925 5926 5926 5926 5926 5926 5926 5926 5926 5925 5925 5925 5925 5925 5925 5925 5925 5925 5924 5924 5923 5922 5921 5921 5922 5923 5923 5923 5924 5925 5925 5926 5927 5927 5928 5928 5929 5928 5926 5927 5928 5930 5930 5930 5931 5931 5931 5932 5932 5931 5932 5933 5933 5933 5933 5932 5932 5932
5917 5918 5918 5919 5919 5919 5920 5920 5921 5922 5922 5922 5922 5922 5923 5923 5924 5924 5925 5925 5926 5926 5927 5927 5927 5927 5927 5927 5927 5927 5927 5927 5927 5927 5927 5927 5927 5926 5926 5926 5926 5926 5926 5926 5925 5925 5925 5924 5923 5923 5923 5923 5924 5924 5925 5926 5926 5927 5927 5928 5928 5929 5929 5930 5929 5929 5929 5929 5931 5931 5931 5931 5932 5932 5932 5932 5932 5933 5933 5933 5933 5933 5933 5933 5933
5917 5918 5919 5919 5920 5920 5920 5921 5922 5922 5922 5923 5923 5923 5923 5924 5924 5925 5926 5926 5927 5927 5928 5928 5928 5928 5928 5928 5928 5928 5928 5928 5928 5929 5928 5928 5928 5927 5927 5927 5927 5927 5927 5927 5926 5926 5926 5925 5924 5924 5924 5924 5925 5925 5926 5927 5928 5928 5929 5929 5929 5929 5930 5930 5931 5931 5931 5932 5932 5932 5932 5932 5932 5932 5932 5932 5933 5934 5934 5934 5934 5934 5934 5934 5934
5918 5918 5919 5920 5920 5920 5921 5921 5922 5923 5923 5923 5924 5924 5924 5925 5925 5926 5927 5927 5928 5929 5929 5929 5929 5929 5929 5929 5929 5929 5929 5929 5930 5930 5929 5929 5929 5929 5928 5928 5928 5928 5928 5928 5927 5927 5927 5926 5926 5925 5925 5926 5926 5927 5928 5928 5929 5929 5930 5930 5930 5930 5930 5931 5931 5932 5932 5933 5934 5933 5933 5933 5933 5933 5933 5933 5934 5934 5935 5935 5935 5934 5935 5935 5934
5918 5919 5919 5920 5920 5921 5921 5922 5922 5923 5923 5924 5924 5924 5925 5925 5926 5927 5928 5928 5929 5930 5930 5930 5930 5930 5930 5930 5930 5930 5931 5931 5931 5931 5931 5931 5930 5930 5930 5930 5930 5930 5929 5929 5929 5929 5928 5928 5927 5927 5927 5927 5928 5928 5929 5929 5929 5930 5931 5931 5932 5931 5931 5931 5931 5932 5933 5934 5934 5935 5935 5935 5934 5934 5934 5935 5935 5935 5935 5935 5935 5935 5935 5935 5935
5918 5919 5919 5920 5920 5921 5921 5922 5922 5923 5923 5924 5924 5925 5925 5926 5927 5928 5929 5929 5930 5931 5931 5931 5931 5931 5931 5931 5931 5932 5932 5932 5932 5932 5932 5932 5932 5931 5931 5931 5931 5931 5931 5931 5931 5930 5930 5930 5929 5929 5929 5929 5929 5930 5930 5930 5930 5931 5931 5932 5933 5933 5933 5933 5932 5932 5933 5934 5934 5935 5935 5935 5935 5935 5935 5936 5936 5936 5936 5936 5936 5936 5935 5935 5935
5919 5919 5920 5920 5921 5921 5922 5922 5922 5923 5924 5924 5925 5925 5926 5926 5927 5928 5929 5930 5931 5932 5932 5932 5932 5932 5932 5932 5933 5933 5933 5933 5933 5933 5933 5933 5933 5933 5933 5932 5932 5932 5932 5932 5932 5932 5932 5931 5931 5931 5931 5931 5931 5931 5931 5931 5932 5932 5932 5933 5933 5934 5934 5934 5934 5934 5934 5934 5935 5935 5936 5936 5936 5936 5936 5936 5937 5937 5937 5937 5937 5937 5936 5936 5936
5919 5920 5920 5920 5921 5921 5922 5922 5923 5924 5924 5925 5925 5926 5926 5927 5928 5929 5930 5931 5932 5933 5933 5933 5933 5933 5933 5933 5934 5934 5934 5934 5934 5934 5934 5934 5934 5934 5934 5934 5934 5934 5934 5934 5933 5933 5933 5933 5933 5933 5932 5932 5932 5932 5932 5933 5933 5933 5933 5934 5934 5934 5935 5935 5935 5935 5935 5935 5936 5936 5936 5937 5937 5937 5937 5938 5938 5938 5938 5938 5938 5937 5937 5937 5936
5920 5920 5920 5921 5921 5922 5922 5923 5924 5924 5925 5926 5926 5927 5927 5928 5929 5930 5931 5932 5933 5933 5934 5934 5934 5934 5934 5934 5935 5935 5935 5935 5935 5935 5935 5935 5935 5935 5935 5935 5935 5935 5935 5935 5935 5935 5935 5935 5934 5934 5934 5934 5933 5934 5934 5934 5934 5935 5935 5935 5935 5935 5935 5936 5936 5937 5937 5937 5937 5937 5938 5938 5938 5939 5939 5939 5939 5939 5939 5939 5938 5938 5938 5937 5937
5920 5920 5921 5921 5921 5922 5923 5923 5924 5925 5926 5926 5927 5928 5929 5929 5930 5931 5932 5933 5934 5934 5935 5935 5935 5935 5935 5935 5936 5936 5936 5936 5936 5936 5936 5936 5936 5936 5936 5936 5936 5936 5936 5936 5936 5936 5936 5936 5935 5935 5935 5935 5935 5935 5935 5935 5936 5936 5936 5936 5936 5936 5936 5937 5937 5937 5938 5938 5938 5938 5939 5939 5939 5940 5940 5940 5940 5940 5940 5939 5939 5939 5938 5938 5937
5920 5920 5921 5921 5922 5922 5923 5924 5924 5925 5926 5927 5928 5928 5929 5930 5931 5932 5933 5934 5934 5935 5936 5936 5936 5936 5936 5936 5936 5937 5937 5937 5937 5937 5937 5937 5937 5937 5937 5937 5937 5937 5937 5937 5937 5937 5937 5937 5937 5936 5936 5936 5937 5937 5937 5937 5937 5937 5937 5937 5937 5937 5938 5938 5938 5938 5938 5939 5939 5939 5940 5940 5940 5940 5941 5941 5941 5941 5940 5940 5940 5939 5939 5938 5938
5920 5921 5921 5921 5922 5923 5923 5924 5925 5925 5926 5927 5928 5929 5930 5931 5932 5933 5934 5934 5935 5936 5936 5937 5937 5937 5937 5937 5937 5937 5938 5937 5937 5937 5938 5938 5938 5938 5938 5938 5938 5938 5938 5938 5938 5938 5938 5938 5938 5938 5938 5938 5938 5938 5938 5938 5938 5938 5938 5938 5938 5939 5939 5939 5939 5939 5940 5940 5940 5940 5941 5941 5941 5941 5942 5942 5942 5941 5941 5941 5941 5940 5940 5940 5940
5920 5921 5921 5922 5922 5923 5924 5924 5925 5926 5927 5928 5928 5929 5930 5931 5932 5933 5934 5935 5936 5937 5937 5938 5938 5938 5938 5938 5938 5938 5938 5938 5938 5938 5938 5938 5939 5939 5939 5939 5939 5939 5939 5939 5939 5939 5939 5939 5939 5939 5939 5939 5939 5939 5939 5939 5939 5939 5940 5940 5940 5940 5940 5941 5941 5941 5941 5941 5941 5941 5942 5942 5942 5942 5942 5943 5943 5943 5942 5942 5942 5942 5942 5942 5941
5920 5920 5921 5922 5922 5923 5924 5925 5925 5926 5927 5928 5928 5929 5931 5932 5933 5934 5935 5936 5937 5937 5938 5938 5939 5939 5939 5939 5939 5939 5939 5939 5939 5939 5939 5939 5939 5939 5940 5940 5940 5940 5940 5940 5940 5941 5941 5941 5941 5941 5941 5941 5941 5941 5941 5941 5941 5941 5941 5941 5941 5941 5942 5942 5942 5943 5943 5943 5943 5943 5943 5943 5943 5943 5943 5944 5944 5944 5944 5944 5944 5944 5944 5943 5943
5920 5920 5921 5922 5922 5923 5924 5925 5925 5926 5927 5928 5928 5929 5931 5932 5933 5934 5935 5936 5938 5938 5939 5939 5939 5939 5939 5939 5940 5940 5940 5940 5940 5940 5940 5940 5940 5940 5940 5941 5941 5941 5941 5941 5941 5942 5942 5942 5942 5942 5942 5942 5942 5942 5942 5942 5942 5942 5942 5942 5943 5943 5943 5944 5944 5944 5944 5944 5944 5944 5944 5944 5945 5945 5945 5945 5945 5945 5946 5946 5946 5946 5945 5945 5945
5920 5920 5921 5922 5923 5923 5924 5925 5925 5926 5927 5928 5929 5930 5931 5932 5934 5935 5936 5937 5938 5939 5939 5940 5940 5940 5940 5940 5941 5941 5941 5941 5941 5941 5940 5940 5941 5941 5941 5941 5941 5942 5942 5942 5942 5943 5943 5943 5943 5943 5943 5943 5943 5943 5944 5944 5944 5944 5944 5944 5944 5944 5944 5945 5945 5945 5946 5946 5946 5946 5946 5946 5946 5946 5946 5946 5947 5947 5947 5947 5947 5947 5947 5947 5946
5920 5920 5921 5922 5923 5923 5924 5925 5926 5926 5927 5928 5929 5931 5932 5933 5934 5936 5937 5938 5939 5940 5940 5940 5941 5941 5941 5941 5941 5942 5942 5942 5942 5941 5941 5941 5941 5941 5941 5942 5942 5942 5943 5943 5943 5944 5944 5944 5944 5944 5945 5945 5945 5945 5945 5945 5945 5945 5945 5945 5945 5946 5946 5946 5946 5947 5947 5947 5947 5947 5947 5947 5947 5947 5947 5948 5948 5949 5949 5949 5949 5949 5949 5948 5948
5920 5920 5921 5922 5923 5924 5924 5925 5926 5926 5927 5929 5930 5931 5932 5934 5935 5936 5937 5938 5939 5940 5941 5941 5941 5941 5942 5942 5942 5942 5942 5942 5942 5942 5942 5942 5942 5942 5942 5942 5943 5943 5943 5944 5944 5944 5945 5945 5945 5946 5946 5946 5946 5946 5946 5947 5947 5947 5946 5946 5946 5947 5947 5947 5948 5948 5948 5948 5948 5948 5948 5949 5949 5949 5949 5949 5950 5950 5950 5951 5950 5950 5950 5950 5949
5920 5920 5921 5922 5923 5924 5925 5925 5926 5927 5928 5929 5930 5932 5933 5934 5935 5937 5938 5939 5940 5940 5941 5941 5942 5942 5942 5943 5943 5943 5943 5943 5942 5942 5942 5942 5943 5943 5943 5943 5943 5944 5944 5945 5945 5945 5946 5946 5946 5947 5947 5947 5947 5947 5948 5948 5948 5948 5948 5948 5948 5948 5948 5949 5949 5949 5950 5950 5950 5949 5950 5950 5950 5950 5951 5951 5951 5951 5951 5952 5952 5951 5951 5951 5951
5920 5920 5921 5922 5923 5924 5925 5925 5926 5927 5928 5930 5931 5932 5934 5935 5936 5937 5938 5939 5940 5941 5941 5942 5942 5943 5943 5943 5943 5943 5943 5943 5943 5943 5943 5943 5943 5943 5944 5944 5944 5944 5945 5945 5946 5946 5946 5947 5947 5947 5947 5948 5948 5948 5949 5949 5949 5949 5949 5949 5949 5949 5949 5950 5950 5951 5951 5951 5951 5951 5951 5951 5951 5951 5952 5952 5952 5952 5952 5953 5952 5952 5952 5952 5951
5920 5920 5921 5922 5923 5924 5925 5925 5927 5928 5929 5930 5931 5933 5934 5935 5936 5938 5939 5940 5941 5941 5942 5942 5943 5943 5944 5944 5944 5943 5943 5943 5943 5943 5943 5944 5944 5944 5944 5945 5945 5945 5945 5946 5946 5947 5947 5947 5947 5948 5948 5948 5949 5949 5950 5950 5950 5950 5951 5951 5951 5951 5951 5951 5952 5952 5952 5952 5952 5952 5952 5952 5952 5952 5953 5953 5953 5953 5953 5953 5953 5953 5953 5953 5952
5919 5920 5921 5922 5923 5924 5925 5926 5927 5928 5929 5931 5932 5933 5935 5936 5937 5938 5939 5940 5941 5941 5942 5942 5943 5944 5944 5944 5944 5944 5944 5943 5943 5943 5944 5944 5945 5945 5945 5946 5946 5946 5946 5946 5946 5947 5947 5948 5948 5948 5948 5949 5949 5950 5950 5951 5951 5951 5951 5952 5952 5952 5952 5953 5953 5953 5953 5953 5953 5953 5953 5953 5953 5953 5954 5954 5954 5954 5954 5954 5954 5954 5954 5953 5953
5919 5920 5921 5922 5923 5924 5925 5926 5927 5929 5930 5931 5932 5934 5935 5936 5938 5939 5940 5941 5941 5942 5942 5943 5943 5944 5944 5944 5944 5944 5944 5944 5944 5944 5944 5945 5945 5946 5946 5947 5947 5947 5947 5947 5947 5947 5948 5948 5949 5949 5949 5949 5950 5950 5951 5951 5951 5952 5952 5952 5953 5953 5953 5954 5954 5954 5954 5954 5954 5954 5954 5954 5954 5954 5954 5954 5954 5955 5955 5955 5955 5955 5954 5954 5953
5919 5920 5921 5922 5924 5924 5925 5926 5928 5929 5930 5932 5933 5934 5935 5937 5938 5939 5940 5941 5941 5942 5943 5943 5944 5944 5944 5945 5945 5945 5945 5945 5945 5945 5945 5946 5946 5947 5947 5948 5948 5948 5947 5947 5948 5948 5948 5949 5949 5950 5950 5950 5950 5951 5951 5951 5952 5952 5952 5952 5953 5953 5954 5954 5955 5955 5954 5955 5955 5954 5954 5954 5955 5955 5955 5955 5955 5955 5955 5955 5955 5955 5955 5954 5954
5919 5919 5921 5922 5924 5925 5926 5927 5928 5929 5931 5932 5933 5935 5936 5937 5938 5939 5940 5940 5941 5942 5943 5943 5944 5944 5945 5945 5945 5945 5945 5946 5946 5946 5946 5946 5947 5948 5948 5949 5949 5949 5948 5948 5949 5949 5949 5950 5950 5950 5951 5951 5951 5952 5952 5952 5952 5952 5953 5953 5953 5954 5954 5955 5955 5955 5955 5955 5955 5955 5955 5955 5956 5956 5956 5956 5956 5956 5956 5956 5956 5955 5955 5955 5955
5918 5919 5920 5922 5923 5925 5926 5927 5929 5930 5931 5933 5934 5935 5936 5937 5938 5939 5939 5940 5941 5942 5943 5944 5944 5945 5945 5945 5946 5946 5946 5947 5947 5947 5947 5947 5948 5948 5949 5950 5950 5950 5950 5950 5950 5950 5951 5951 5951 5951 5952 5952 5952 5952 5952 5952 5953 5953 5953 5953 5953 5954 5954 5955 5955 5955 5955 5956 5956 5956 5956 5956 5956 5956 5956 5956 5956 5956 5956 5956 5956 5956 5956 5955 5955
5918 5919 5920 5921 5923 5924 5925 5927 5928 5930 5931 5932 5934 5935 5935 5936 5937 5938 5939 5940 5941 5942 5943 5944 5944 5945 5945 5946 5946 5946 5947 5948 5948 5948 5948 5948 5949 5949 5950 5951 5951 5951 5951 5951 5951 5952 5952 5952 5952 5952 5953 5953 5953 5953 5953 5953 5953 5954 5954 5954 5954 5955 5955 5955 5956 5956 5956 5956 5956 5957 5957 5957 5957 5957 5957 5957 5957 5957 5957 5957 5957 5956 5956 5956 5956
5917 5918 5919 5920 5922 5923 5925 5926 5928 5929 5931 5932 5933 5934 5935 5936 5937 5938 5939 5940 5941 5942 5943 5944 5945 5945 5946 5946 5947 5946 5947 5948 5949 5949 5949 5949 5950 5950 5951 5952 5952 5952 5952 5952 5953 5953 5953 5953 5953 5954 5954 5954 5954 5954 5954 5954 5954 5955 5955 5955 5955 5955 5956 5956 5956 5956 5957 5957 5957 5957 5957 5957 5957 5957 5958 5958 5958 5957 5957 5957 5957 5957 5957 5957 5956
5916 5917 5918 5919 5921 5922 5924 5926 5927 5928 5930 5931 5932 5933 5934 5935 5937 5938 5939 5941 5942 5943 5944 5945 5945 5946 5946 5946 5947 5947 5947 5948 5949 5950 5950 5950 5950 5951 5952 5952 5953 5953 5953 5954 5954 5954 5954 5954 5955 5955 5955 5955 5955 5955 5956 5955 5955 5955 5955 5956 5956 5956 5957 5957 5957 5957 5957 5957 5957 5958 5958 5958 5958 5958 5958 5958 5958 5958 5958 5957 5957 5957 5958 5957 5957
5916 5917 5918 5919 5921 5922 5923 5925 5926 5927 5929 5930 5932 5933 5934 5936 5937 5939 5940 5942 5943 5944 5944 5945 5945 5946 5946 5947 5947 5947 5947 5948 5950 5951 5951 5951 5951 5951 5952 5953 5953 5953 5954 5954 5955 5955 5955 5956 5956 5956 5956 5956 5956 5956 5956 5956 5956 5956 5957 5957 5957 5958 5958 5958 5958 5958 5958 5958 5958 5958 5959 5959 5959 5959 5959 5959 5959 5958 5958 5958 5958 5958 5958 5958 5958
5914 5916 5917 5919 5920 5921 5922 5923 5924 5926 5928 5929 5931 5933 5935 5936 5938 5940 5941 5942 5944 5944 5945 5945 5945 5946 5947 5947 5948 5948 5948 5949 5950 5951 5952 5952 5951 5952 5952 5953 5953 5954 5954 5955 5956 5956 5956 5956 5957 5957 5957 5957 5957 5957 5957 5957 5957 5958 5958 5958 5958 5959 5959 5959 5959 5959 5959 5959 5959 5959 5959 5960 5959 5959 5960 5959 5959 5959 5959 5959 5959 5959 5959 5959 5958
5912 5914 5916 5917 5918 5919 5921 5922 5923 5925 5927 5928 5931 5933 5935 5937 5938 5940 5941 5942 5943 5943 5944 5945 5946 5947 5947 5948 5949 5949 5949 5950 5951 5952 5953 5953 5952 5952 5953 5954 5954 5954 5955 5955 5956 5956 5957 5957 5957 5957 5957 5958 5958 5958 5958 5958 5959 5959 5959 5959 5959 5960 5960 5960 5960 5959 5960 5960 5960 5960 5960 5960 5960 5960 5960 5960 5959 5959 5959 5959 5959 5959 5959 5959 5959
5910 5912 5914 5916 5917 5919 5920 5921 5922 5924 5926 5928 5930 5932 5934 5936 5938 5939 5940 5941 5942 5942 5943 5945 5946 5947 5948 5949 5950 5950 5951 5951 5952 5953 5953 5954 5953 5953 5954 5954 5955 5955 5955 5956 5957 5957 5957 5957 5957 5958 5958 5958 5959 5959 5959 5960 5960 5960 5960 5960 5960 5960 5960 5961 5961 5960 5961 5960 5960 5961 5961 5961 5961 5960 5960 5960 5960 5961 5961 5961 5960 5960 5960 5960 5959
5908 5910 5912 5914 5916 5918 5919 5920 5922 5923 5925 5927 5930 5932 5934 5935 5937 5938 5940 5941 5941 5942 5944 5945 5947 5948 5949 5950 5951 5951 5952 5952 5953 5954 5954 5954 5954 5954 5955 5955 5956 5956 5956 5957 5957 5958 5958 5958 5958 5958 5959 5959 5959 5960 5960 5961 5961 5961 5961 5961 5960 5961 5961 5961 5961 5962 5962 5961 5961 5961 5961 5962 5962 5961 5961 5962 5962 5962 5962 5961 5961 5961 5960 5960 5960
5906 5908 5910 5912 5914 5916 5918 5919 5921 5923 5925 5927 5929 5931 5932 5934 5935 5937 5938 5940 5941 5942 5944 5946 5947 5948 5949 5950 5951 5952 5952 5953 5953 5954 5955 5955 5955 5955 5956 5956 5957 5957 5957 5958 5958 5959 5959 5959 5959 5959 5959 5960 5960 5961 5961 5961 5962 5962 5962 5961 5961 5961 5962 5962 5962 5962 5963 5962 5962 5962 5963 5963 5963 5963 5963 5963 5963 5963 5963 5962 5962 5962 5961 5961 5960
5905 5906 5908 5910 5912 5915 5917 5919 5920 5922 5924 5926 5928 5930 5932 5933 5935 5936 5937 5939 5941 5942 5944 5946 5947 5948 5949 5950 5951 5952 5953 5953 5954 5955 5955 5956 5956 5956 5956 5957 5958 5958 5958 5959 5959 5960 5960 5960 5960 5960 5961 5961 5961 5962 5962 5962 5962 5962 5962 5962 5962 5962 5962 5963 5963 5963 5963 5963 5963 5964 5964 5964 5964 5964 5964 5964 5964 5964 5963 5963 5963 5962 5962 5961 5961
5904 5905 5907 5908 5911 5913 5915 5918 5919 5921 5923 5925 5927 5929 5931 5932 5934 5935 5937 5938 5940 5942 5944 5945 5946 5948 5949 5950 5951 5952 5953 5954 5954 5955 5955 5956 5956 5956 5957 5958 5958 5959 5959 5960 5960 5960 5961 5961 5961 5962 5962 5962 5962 5962 5962 5962 5962 5962 5963 5963 5963 5963 5963 5963 5964 5964 5964 5964 5964 5965 5965 5965 5965 5965 5965 5965 5965 5964 5964 5964 5963 5963 5963 5962 5962